Location: *
(45.9500°N, 9.0833°E)
Time: 06:10:21
(UTC+00:00)

SR - Pass Details

Date: 22 June 2021
Orbit: 577 x 878 km, 66.7° (Epoch: 24 July)

Event Time Altitude Azimuth Distance (km) Brightness Sun altitude
Rises 21:47:07 0° 331° (NNW) 3,358 ? -17.1°
Reaches altitude 10° 21:50:33 10° 351° (N) 2,366 ? -17.3°
Maximum altitude 21:54:00 17° 31° (NNE) 1,867 ? -17.6°
Drops below altitude 10° 21:57:17 10° 71° (ENE) 2,231 ? -17.8°
Enters shadow 22:00:12 - 91° (E) 3,027 ? -17.9°
Sets 22:00:23 0° 92° (E) 3,083 - -18.0°
